Miscellaneous Local Product
Issued by NWS Hastings, NE

Home | Current Version | Previous Version | Graphics & Text | Print | Product List | Glossary On
Versions: 1 2 3 4 5 6 7 8 9 10 11 12 13 14 15 16 17 18 19 20 21 22 23 24 25 26 27 28 29 30 31 32 33 34 35 36 37 38 39 40 41 42 43 44 45 46 47 48 49 50
000
AXUS43 KGID 280702
MISGRI

GID CWA HOURLY WEATHER ROUNDUP
NATIONAL WEATHER SERVICE HASTINGS NE
100 AM CST SAT FEB 28 2015

NOTE: "FAIR" INDICATES FEW OR NO CLOUDS BELOW 12,000 FEET WITH NO
SIGNIFICANT WEATHER AND/OR OBSTRUCTIONS TO VISIBILITY.

...SOUTH CENTRAL NEBRASKA...

CITY           SKY/WX    TMP DP  RH WIND       PRES   REMARKS
GRAND ISLAND   CLEAR     10   2  69 S10       30.38F WCI  -4
HASTINGS       CLEAR      9   1  70 S6        30.37S WCI  -1
KEARNEY        CLEAR      9   1  72 S10       30.34S WCI  -6
ORD            CLEAR     10   0  63 S7        30.31F WCI  -1
YORK           CLOUDY    12   5  73 S7        30.41F WCI   2
AURORA         PTCLDY    13   3  66 S8        30.39S WCI   1
LEXINGTON      CLOUDY    15   6  67 S13       30.28F WCI   1
HOLDREGE       CLOUDY    10   4  75 S10       30.31S WCI  -4
HEBRON         CLEAR     11   2  69 S5        30.45S WCI   2

...NEBRASKA PANHANDLE...

CITY           SKY/WX    TMP DP  RH WIND       PRES   REMARKS
CHADRON        CLEAR     16   7  67 S12       30.03F WCI   3
ALLIANCE       CLEAR     10   5  80 S14       30.02F WCI  -6
SCOTTSBLUFF    CLEAR     11   5  77 SE8       30.00F WCI  -1
SIDNEY         CLOUDY     7   3  84 S13       30.01S FOG     WCI  -9

...WESTERN AND NORTH CENTRAL NEBRASKA...

CITY           SKY/WX    TMP DP  RH WIND       PRES   REMARKS
VALENTINE      CLOUDY    18   6  59 S14       30.17F WCI   4
AINSWORTH      CLEAR     11   1  66 S10       30.20F WCI  -3
ONEILL         CLEAR     12   1  61 S12       30.30F WCI  -2
BROKEN BOW     CLEAR      9   2  73 S13G23    30.25F WCI  -7
IMPERIAL         N/A     14   7  73 S15       30.15F WCI  -1
NORTH PLATTE   CLOUDY    15   5  64 S14       30.21S WCI   0
MCCOOK         CLOUDY    17   5  59 S12       30.25F WCI   4

...EASTERN NEBRASKA...

CITY           SKY/WX    TMP DP  RH WIND       PRES   REMARKS
NORFOLK        CLEAR      7   0  73 SE7       30.39F WCI  -5
SO SIOUX CITY  CLEAR      3  -2  79 SE9       30.48F WCI -12
TEKAMAH        CLEAR      5  -1  76 CALM      30.50F
COLUMBUS       CLEAR      7  -6  56 SE6       30.43S WCI  -3
ALBION         CLEAR      5  -3  71 SE5       30.37F WCI  -4
OMAHA EPPLEY   CLEAR      9   1  70 SE6       30.52S WCI  -1
OFFUTT AFB     CLEAR      9  -1  65 E6        30.50S WCI  -1
MILLARD        CLEAR     11   2  68 CALM      30.50S
LINCOLN        CLEAR      9   1  70 S8        30.48F WCI  -3
NEBRASKA CITY  CLEAR      8  -4  58 S6        30.50S WCI  -2
BEATRICE       MOCLDY    13   4  67 SE5       30.47S WCI   5
FALLS CITY     CLOUDY    11   3  70 SE3       30.52F

...NORTHERN KANSAS...

CITY           SKY/WX    TMP DP  RH WIND       PRES   REMARKS
GOODLAND       LGT SNOW  11   8  88 S14       30.14F FOG     WCI  -5
HILL CITY      CLOUDY    15   6  67 S10       30.33F WCI   2
NORTON         CLOUDY    14   3  62 S9        30.29  WCI   2
PHILLIPSBURG   CLOUDY    16  10  79 SE7       30.36  WCI   6
SMITH CENTER   CLOUDY     9   5  85 SE8       30.39F WCI  -4
BELOIT         CLEAR      9   5  85 SE5       30.44F WCI   0
HAYS           CLOUDY    12   0  57 SE12      30.35F WCI  -2
RUSSELL        MOCLDY    11   8  88 S8        30.37F WCI  -1
CONCORDIA      PTCLDY     8   6  92 S8        30.44F WCI  -4
SALINA         CLEAR      9   5  84 SE6       30.47S WCI  -1
TOPEKA         CLOUDY    16   5  62 E3        30.54S



USA.gov is the U.S. government's official web portal to all federal, state and local government web resources and services.